闪电 3-41星 (MOLNIYA 3-41)

导读

MOLNIYA 3-41(闪电3-41)是独联体(CIS)继承苏联航天遗产后于1991年9月17日发射的第三代闪电系列通信卫星,属于著名的Molniya星座成员。它采用大偏心率闪电轨道,单颗可保障北半球高纬度地区8-10小时通信服务,主要承担民用通信与电视信号传输任务,搭载C频段转发器,设计寿命3年,延续了苏联/俄罗斯依托闪电星座实现高纬度区域通信覆盖的经典方案。

基本信息
目录编号:
21706
目录名称:
MOLNIYA 3-41
国际标识:
1991-065A
轨道中心:
EARTH
卫星名称:
闪电 3-41星
卫星全名:
闪电 3-41星 (MOLNIYA 3-41)
卫星状态:
在轨 (已飞行12778 天)
发射日期:
1991-09-17 UTC
国别 :
俄罗斯(独联体) (CIS)
星等 :
--
轨道信息
数据来源 国际轨道数据 AOE轨道数据
星历时间 2026-09-08T21:44:46+0800
2天前
查看轨道信息
2026-09-06T11:00:00+0800
4天前
查看轨道信息
半长轴 26216.937km 26215.955km
偏心率 0.7418843 0.7418968
轨道倾角 62.623° 62.633°
近地点辐角 254.105° 254.075°
升交点赤经 306.131° 306.541°
平近点角 19.680° 17.452°
近地点 388.866km 388.284km
远地点 39288.734km 39287.352km
周期 704.097分钟 704.058分钟
每日圈数 2.045172 2.045287
详细信息
平衡模式:
三轴稳定
覆盖范围:
全球
运营商:
俄罗斯国家航天集团
运营商所在国:
俄罗斯
制造商(研发单位):
普里克拉德诺伊·梅哈尼基设计局
制造商所在国:
俄罗斯联邦
使用方式:
暂无
卫星简介
闪电(Molniya (Satellite))系列卫星是苏联/俄罗斯于1965年至2004年间发射的军事和通信卫星。这些卫星使用高度偏心的椭圆轨道,称为Molniya轨道(即闪电轨道),在高纬度地区具有较长的停留时间。该卫星状态未知。
2D轨道图
3D轨道图
轨道高度分析图
轨道倾角分析图
轨道综合分析图
查看轨道综合分析图
与全量物体交会距离演化趋势
与全量物体交会风险概率演化趋势